Flag for U.S.A. Weather past 2 weeks in Jackson, Mississippi, U.S.A.

Now
56 °F

Mostly cloudy.


Feels Like: 54 °F
Forecast: 41 / 59 °F
Wind: 9 mph from North

Location: Hawkins Field

Current Time: Mar 26, 2015 at 7:11:34 PM

Latest Report: Mar 26, 2015 at 5:53 PM


Visibility: 10 mi

Pressure: 29.85 "Hg

Humidity: 87%

Dew point: 52 °F

Location of JacksonLocation

Historic Weather in Jackson — Graph

°F

Jackson temperature yesterday

Maximum temperature yesterday: 79 °F (at 3:53 PM)
Minimum temperature yesterday: 57 °F (at 1:53 AM)
Average temperature yesterday: 68 °F

Past Weeks' High & Low Weather Summary

 TemperatureHumidityPressure
High91 °F (Mar 15, 3:53 PM)97% (Mar 13, 10:53 PM)30.28 "Hg (Mar 13, 10:53 PM)
Low48 °F (Mar 24, 5:53 AM)29% (Mar 16, 3:53 PM)29.79 "Hg (Mar 26, 2:53 PM)
Average65 °F78%30.04 "Hg
* Reported Mar 11 5:53 PM — Mar 26 5:53 PM, Jackson, Weather by CustomWeather, © 2015

Note: Actual official high and low records may vary slightly from our data, if they occured in-between our weather recording intervals... More about our weather records

Advertising

Jackson weather history for previous 24 hours

 ConditionsComfort  
Time TempWeatherWind HumidityBarometerVisibility
5:53 PM
Thu, Mar 26
56 °FMostly cloudy.9 mph87%29.85 "Hg10 mi
4:58 PM60 °FHeavy rain. Fog.17 mph90%29.85 "Hg1 mi
3:53 PM67 °FLight rain. Mostly cloudy.9 mph85%29.81 "Hg8 mi
2:53 PM74 °FOvercast.7 mph53%29.79 "Hg10 mi
1:53 PM75 °FPartly sunny.6 mph50%29.81 "Hg10 mi
12:53 PM76 °FBroken clouds.5 mph52%29.83 "Hg10 mi
11:53 AM76 °FPartly sunny.5 mph52%29.85 "Hg10 mi
10:53 AM74 °FSunny.3 mph57%29.86 "Hg10 mi
9:53 AM69 °FSunny.No wind68%29.90 "Hg10 mi
8:53 AM65 °FPassing clouds.No wind81%29.93 "Hg10 mi
7:53 AM62 °FPassing clouds.No wind86%29.94 "Hg10 mi
7:00 AM60 °FPassing clouds.No wind90%29.98 "Hg10 mi
5:53 AM60 °FPassing clouds.7 mph90%29.93 "Hg10 mi
4:53 AM60 °FPassing clouds.3 mph86%29.87 "Hg10 mi
3:53 AM60 °FPassing clouds.7 mph86%29.88 "Hg10 mi
2:53 AM60 °FPassing clouds.7 mph86%29.90 "Hg10 mi
1:53 AM62 °FPassing clouds.6 mph80%29.92 "Hg10 mi
12:53 AM63 °FClear.8 mph78%29.92 "Hg10 mi
11:53 PM
Wed, Mar 25
66 °FClear.10 mph70%29.93 "Hg10 mi
10:53 PM66 °FClear.9 mph70%29.91 "Hg10 mi
9:53 PM66 °FClear.8 mph70%29.94 "Hg10 mi
8:53 PM68 °FClear.8 mph65%29.91 "Hg10 mi
7:53 PM71 °FSunny.5 mph57%29.92 "Hg10 mi
Weather by CustomWeather, © 2015

See weather overviewHow to use our weather pages